Time,TemperatureF,DewpointF,PressureIn,WindDirection,WindDirectionDegrees,WindSpeedMPH,WindSpeedGustMPH,Humidity,HourlyPrecipIn,Conditions,Clouds,dailyrainin,SoftwareType,DateUTC
2013-04-14 00:00:00,52.2,33.6,28.97,SW,218,0.0,0.0,49,0.00,,SKC,0.00,VWS V14.00,2013-04-14 04:00:00,
2013-04-14 00:05:00,52.2,34.1,28.97,SW,218,0.0,0.0,50,0.00,,SKC,0.00,VWS V14.00,2013-04-14 04:05:00,
2013-04-14 00:10:00,52.2,34.1,28.97,SW,218,0.0,0.0,50,0.00,,SKC,0.00,VWS V14.00,2013-04-14 04:10:00,
2013-04-14 00:15:00,52.2,34.1,28.97,SW,218,0.0,0.0,50,0.00,,SKC,0.00,VWS V14.00,2013-04-14 04:15:00,
2013-04-14 00:20:00,52.2,34.1,28.97,SW,218,0.0,0.0,50,0.00,,SKC,0.00,VWS V14.00,2013-04-14 04:20:00,
2013-04-14 00:25:00,52.0,33.9,28.97,SW,218,0.0,0.0,50,0.00,,SKC,0.00,VWS V14.00,2013-04-14 04:25:00,
2013-04-14 00:30:00,51.8,33.8,28.97,SW,218,0.0,0.0,50,0.00,,SKC,0.00,VWS V14.00,2013-04-14 04:30:00,
2013-04-14 00:35:00,51.6,34.1,28.97,SW,218,0.0,0.0,51,0.00,,SKC,0.00,VWS V14.00,2013-04-14 04:35:00,
2013-04-14 00:40:00,51.6,34.1,28.97,SW,218,0.0,0.0,51,0.00,,SKC,0.00,VWS V14.00,2013-04-14 04:40:00,
2013-04-14 00:45:00,51.4,33.9,28.97,SW,218,0.0,0.0,51,0.00,,SKC,0.00,VWS V14.00,2013-04-14 04:45:00,
2013-04-14 00:50:00,51.4,33.9,29.00,SW,218,0.0,0.0,51,0.00,,SKC,0.00,VWS V14.00,2013-04-14 04:50:00,
2013-04-14 00:55:00,51.3,34.2,29.00,SW,218,0.0,0.0,52,0.00,,SKC,0.00,VWS V14.00,2013-04-14 04:55:00,
2013-04-14 01:00:00,51.1,34.1,29.00,SW,218,0.0,0.0,52,0.00,,SKC,0.00,VWS V14.00,2013-04-14 05:00:00,
2013-04-14 01:05:00,51.1,34.1,28.97,SW,218,0.0,0.0,52,0.00,,SKC,0.00,VWS V14.00,2013-04-14 05:05:00,
2013-04-14 01:10:00,50.9,33.9,28.97,SW,218,0.0,0.0,52,0.00,,SKC,0.00,VWS V14.00,2013-04-14 05:10:00,
2013-04-14 01:15:00,50.7,33.8,28.97,SW,218,0.0,0.0,52,0.00,,SKC,0.00,VWS V14.00,2013-04-14 05:15:00,
2013-04-14 01:20:00,50.5,34.1,29.00,SW,218,0.0,0.0,53,0.00,,SKC,0.00,VWS V14.00,2013-04-14 05:20:00,
2013-04-14 01:25:00,50.4,33.9,29.00,SW,218,0.0,0.0,53,0.00,,SKC,0.00,VWS V14.00,2013-04-14 05:25:00,
2013-04-14 01:30:00,50.2,33.7,29.00,SW,218,0.0,0.0,53,0.00,,SKC,0.00,VWS V14.00,2013-04-14 05:30:00,
2013-04-14 01:35:00,49.6,33.7,29.00,SW,218,0.0,0.0,54,0.00,,SKC,0.00,VWS V14.00,2013-04-14 05:35:00,
2013-04-14 01:40:00,49.5,33.5,29.00,SW,218,0.0,0.0,54,0.00,,SKC,0.00,VWS V14.00,2013-04-14 05:40:00,
2013-04-14 01:45:00,49.5,33.5,29.00,SW,218,0.0,0.0,54,0.00,,SKC,0.00,VWS V14.00,2013-04-14 05:45:00,
2013-04-14 01:50:00,48.9,33.0,29.00,SW,218,0.0,0.0,54,0.00,,SKC,0.00,VWS V14.00,2013-04-14 05:50:00,
2013-04-14 01:55:00,48.6,33.1,29.00,SW,218,0.0,0.0,55,0.00,,SKC,0.00,VWS V14.00,2013-04-14 05:55:00,
2013-04-14 02:00:00,48.7,33.3,29.00,SW,218,0.0,0.0,55,0.00,,SKC,0.00,VWS V14.00,2013-04-14 06:00:00,
2013-04-14 02:05:00,48.7,33.3,29.00,SW,218,0.0,0.0,55,0.00,,SKC,0.00,VWS V14.00,2013-04-14 06:05:00,
2013-04-14 02:10:00,48.7,33.8,29.00,SW,218,0.0,0.0,56,0.00,,SKC,0.00,VWS V14.00,2013-04-14 06:10:00,
2013-04-14 02:15:00,48.7,33.3,29.00,SW,218,0.0,0.0,55,0.00,,SKC,0.00,VWS V14.00,2013-04-14 06:15:00,
2013-04-14 02:20:00,48.4,33.4,29.00,SW,218,0.0,0.0,56,0.00,,SKC,0.00,VWS V14.00,2013-04-14 06:20:00,
2013-04-14 02:25:00,48.4,33.4,29.00,SW,218,0.0,0.0,56,0.00,,SKC,0.00,VWS V14.00,2013-04-14 06:25:00,
2013-04-14 02:30:00,48.6,33.6,29.00,SW,218,0.0,0.0,56,0.00,,SKC,0.00,VWS V14.00,2013-04-14 06:30:00,
2013-04-14 02:35:00,48.6,33.6,29.00,SW,218,0.0,0.0,56,0.00,,SKC,0.00,VWS V14.00,2013-04-14 06:35:00,
2013-04-14 02:40:00,48.6,33.6,29.00,SW,218,0.0,0.0,56,0.00,,SKC,0.00,VWS V14.00,2013-04-14 06:40:00,
2013-04-14 02:45:00,48.4,33.4,29.00,SW,218,0.0,0.0,56,0.00,,SKC,0.00,VWS V14.00,2013-04-14 06:45:00,
2013-04-14 02:50:00,48.2,33.7,28.97,SW,218,0.0,0.0,57,0.00,,SKC,0.00,VWS V14.00,2013-04-14 06:50:00,
2013-04-14 02:55:00,48.0,33.5,28.97,SW,218,0.0,0.0,57,0.00,,SKC,0.00,VWS V14.00,2013-04-14 06:55:00,
2013-04-14 03:00:00,48.0,33.5,28.97,SW,218,0.0,0.0,57,0.00,,SKC,0.00,VWS V14.00,2013-04-14 07:00:00,
2013-04-14 03:05:00,48.0,33.5,28.97,SW,218,0.0,0.0,57,0.00,,SKC,0.00,VWS V14.00,2013-04-14 07:05:00,
2013-04-14 03:10:00,47.8,33.4,28.97,SW,218,0.0,0.0,57,0.00,,SKC,0.00,VWS V14.00,2013-04-14 07:10:00,
2013-04-14 03:15:00,47.7,33.6,28.97,SW,218,0.0,0.0,58,0.00,,SKC,0.00,VWS V14.00,2013-04-14 07:15:00,
2013-04-14 03:20:00,47.7,33.6,28.97,SW,218,0.0,0.0,58,0.00,,SKC,0.00,VWS V14.00,2013-04-14 07:20:00,
2013-04-14 03:25:00,47.5,33.5,28.97,SW,218,0.0,0.0,58,0.00,,SKC,0.00,VWS V14.00,2013-04-14 07:25:00,
2013-04-14 03:30:00,46.9,33.0,28.97,SW,218,0.0,0.0,58,0.00,,SKC,0.00,VWS V14.00,2013-04-14 07:30:00,
2013-04-14 03:35:00,46.4,32.9,28.97,SW,218,0.0,0.0,59,0.00,,SKC,0.00,VWS V14.00,2013-04-14 07:35:00,
2013-04-14 03:40:00,46.2,33.1,28.97,SW,218,0.0,0.0,60,0.00,,SKC,0.00,VWS V14.00,2013-04-14 07:40:00,
2013-04-14 03:45:00,46.2,33.1,28.97,SW,217,0.0,0.0,60,0.00,,SKC,0.00,VWS V14.00,2013-04-14 07:45:00,
2013-04-14 03:50:00,46.4,33.3,28.97,SW,218,0.0,0.0,60,0.00,,SKC,0.00,VWS V14.00,2013-04-14 07:50:00,
2013-04-14 03:55:00,46.6,33.5,28.97,SW,218,0.0,0.0,60,0.00,,SKC,0.00,VWS V14.00,2013-04-14 07:55:00,
2013-04-14 04:00:00,46.8,33.6,28.97,SW,218,0.0,0.0,60,0.00,,SKC,0.00,VWS V14.00,2013-04-14 08:00:00,
2013-04-14 04:05:00,46.8,33.6,28.97,SW,218,0.0,0.0,60,0.00,,SKC,0.00,VWS V14.00,2013-04-14 08:05:00,
2013-04-14 04:10:00,46.6,33.5,28.97,SW,218,0.0,0.0,60,0.00,,SKC,0.00,VWS V14.00,2013-04-14 08:10:00,
2013-04-14 04:15:00,46.6,33.5,28.97,SW,218,0.0,0.0,60,0.00,,SKC,0.00,VWS V14.00,2013-04-14 08:15:00,
2013-04-14 04:21:00,46.4,33.3,28.97,SW,218,0.0,0.0,60,0.00,,SKC,0.00,VWS V14.00,2013-04-14 08:21:00,
2013-04-14 04:26:00,46.4,33.3,28.97,SW,218,0.0,0.0,60,0.00,,SKC,0.00,VWS V14.00,2013-04-14 08:26:00,
2013-04-14 04:31:00,46.4,33.3,28.97,SW,218,0.0,0.0,60,0.00,,SKC,0.00,VWS V14.00,2013-04-14 08:31:00,
2013-04-14 04:36:00,46.2,33.5,28.97,SW,218,0.0,0.0,61,0.00,,SKC,0.00,VWS V14.00,2013-04-14 08:36:00,
2013-04-14 04:41:00,46.2,33.5,28.97,SW,218,0.0,0.0,61,0.00,,SKC,0.00,VWS V14.00,2013-04-14 08:41:00,
2013-04-14 04:46:00,46.2,33.5,28.97,SW,218,0.0,0.0,61,0.00,,SKC,0.00,VWS V14.00,2013-04-14 08:46:00,
2013-04-14 04:51:00,45.9,33.2,28.97,SW,218,0.0,0.0,61,0.00,,SKC,0.00,VWS V14.00,2013-04-14 08:51:00,
2013-04-14 04:56:00,45.9,33.2,28.97,SW,217,0.0,0.0,61,0.00,,SKC,0.00,VWS V14.00,2013-04-14 08:56:00,
2013-04-14 05:01:00,45.5,32.8,28.97,SW,218,0.0,0.0,61,0.00,,SKC,0.00,VWS V14.00,2013-04-14 09:01:00,
2013-04-14 05:06:00,45.3,33.1,28.97,SW,218,0.0,0.0,62,0.00,,SKC,0.00,VWS V14.00,2013-04-14 09:06:00,
2013-04-14 05:11:00,45.5,33.2,28.97,SW,218,0.0,0.0,62,0.00,,SKC,0.00,VWS V14.00,2013-04-14 09:11:00,
2013-04-14 05:16:00,45.5,33.2,28.97,SW,218,0.0,0.0,62,0.00,,SKC,0.00,VWS V14.00,2013-04-14 09:16:00,
2013-04-14 05:30:00,44.8,33.0,28.97,SW,218,0.0,0.0,63,0.00,,SKC,0.00,VWS V14.00,2013-04-14 09:30:00,
2013-04-14 05:36:00,44.8,33.0,28.97,SW,218,0.0,0.0,63,0.00,,SKC,0.00,VWS V14.00,2013-04-14 09:36:00,
2013-04-14 05:46:00,45.0,33.1,28.97,SW,218,0.0,0.0,63,0.00,,SKC,0.00,VWS V14.00,2013-04-14 09:46:00,
2013-04-14 05:51:00,45.0,33.1,28.97,SW,218,0.0,0.0,63,0.00,,SKC,0.00,VWS V14.00,2013-04-14 09:51:00,
2013-04-14 05:57:00,44.8,33.0,28.97,SW,218,0.0,0.0,63,0.00,,SKC,0.00,VWS V14.00,2013-04-14 09:57:00,
2013-04-14 06:02:00,44.6,32.8,28.97,SW,218,0.0,0.0,63,0.00,,SKC,0.00,VWS V14.00,2013-04-14 10:02:00,
2013-04-14 06:07:00,44.1,32.7,28.97,SW,218,0.0,0.0,64,0.00,,SKC,0.00,VWS V14.00,2013-04-14 10:07:00,
2013-04-14 06:12:00,43.9,32.5,28.97,SW,218,0.0,0.0,64,0.00,,SKC,0.00,VWS V14.00,2013-04-14 10:12:00,
2013-04-14 06:17:00,43.5,32.2,28.97,SW,217,0.0,0.0,64,0.00,,SKC,0.00,VWS V14.00,2013-04-14 10:17:00,
2013-04-14 06:22:00,43.7,32.7,28.97,SW,218,0.0,0.0,65,0.00,,SKC,0.00,VWS V14.00,2013-04-14 10:22:00,
2013-04-14 06:27:00,43.9,32.9,28.97,SW,218,0.0,0.0,65,0.00,,SKC,0.00,VWS V14.00,2013-04-14 10:27:00,
2013-04-14 06:32:00,44.1,33.1,28.97,SW,218,0.0,0.0,65,0.00,,SKC,0.00,VWS V14.00,2013-04-14 10:32:00,
2013-04-14 06:37:00,44.1,33.1,28.97,SW,218,0.0,0.0,65,0.00,,SKC,0.00,VWS V14.00,2013-04-14 10:37:00,
2013-04-14 06:42:00,44.1,32.7,28.97,SW,218,0.0,0.0,64,0.00,,SKC,0.00,VWS V14.00,2013-04-14 10:42:00,
2013-04-14 06:47:00,44.1,32.7,28.97,SW,218,0.0,0.0,64,0.00,,SKC,0.00,VWS V14.00,2013-04-14 10:47:00,
2013-04-14 06:52:00,44.1,33.1,28.97,SW,218,0.0,0.0,65,0.00,,SKC,0.00,VWS V14.00,2013-04-14 10:52:00,
2013-04-14 06:57:00,44.1,33.1,28.97,SW,218,0.0,0.0,65,0.00,,SKC,0.00,VWS V14.00,2013-04-14 10:57:00,
2013-04-14 07:02:00,44.1,33.1,28.97,SW,218,0.0,0.0,65,0.00,,SKC,0.00,VWS V14.00,2013-04-14 11:02:00,
2013-04-14 07:07:00,44.1,33.1,28.97,SW,218,0.0,0.0,65,0.00,,SKC,0.00,VWS V14.00,2013-04-14 11:07:00,
2013-04-14 07:12:00,44.1,33.1,28.97,SW,218,0.0,0.0,65,0.00,,SKC,0.00,VWS V14.00,2013-04-14 11:12:00,
2013-04-14 07:17:00,43.7,32.7,28.97,SW,218,0.0,0.0,65,0.00,,SKC,0.00,VWS V14.00,2013-04-14 11:17:00,
2013-04-14 07:22:00,43.7,33.1,28.97,SW,218,0.0,0.0,66,0.00,,SKC,0.00,VWS V14.00,2013-04-14 11:22:00,
2013-04-14 07:27:00,44.1,33.4,28.97,SW,218,0.0,0.0,66,0.00,,SKC,0.00,VWS V14.00,2013-04-14 11:27:00,
2013-04-14 07:32:00,44.1,33.4,29.00,SW,218,0.0,0.0,66,0.00,,SKC,0.00,VWS V14.00,2013-04-14 11:32:00,
2013-04-14 07:37:00,44.2,33.6,29.00,SW,218,0.0,0.0,66,0.00,,SKC,0.00,VWS V14.00,2013-04-14 11:37:00,
2013-04-14 07:42:00,44.2,33.6,29.00,SW,218,0.0,0.0,66,0.00,,SKC,0.00,VWS V14.00,2013-04-14 11:42:00,
2013-04-14 07:47:00,44.2,34.0,29.00,SW,218,0.0,0.0,67,0.00,,SKC,0.00,VWS V14.00,2013-04-14 11:47:00,
2013-04-14 07:52:00,44.4,34.2,29.00,SW,218,0.0,0.0,67,0.00,,SKC,0.00,VWS V14.00,2013-04-14 11:52:00,
2013-04-14 07:57:00,44.8,34.5,29.00,SW,218,0.0,0.0,67,0.00,,SKC,0.00,VWS V14.00,2013-04-14 11:57:00,
2013-04-14 08:02:00,45.1,34.8,29.00,SW,218,0.0,0.0,67,0.00,,SKC,0.00,VWS V14.00,2013-04-14 12:02:00,
2013-04-14 08:07:00,45.5,35.6,29.00,SW,218,0.0,0.0,68,0.00,,SKC,0.00,VWS V14.00,2013-04-14 12:07:00,
2013-04-14 08:12:00,45.9,35.9,29.00,SW,218,0.0,0.0,68,0.00,,SKC,0.00,VWS V14.00,2013-04-14 12:12:00,
2013-04-14 08:17:00,46.2,36.3,29.00,SW,218,0.0,0.0,68,0.00,,SKC,0.00,VWS V14.00,2013-04-14 12:17:00,
2013-04-14 08:22:00,46.6,36.6,29.00,SW,218,0.0,0.0,68,0.00,,SKC,0.00,VWS V14.00,2013-04-14 12:22:00,
2013-04-14 08:27:00,46.9,36.9,29.00,SW,217,0.0,0.0,68,0.00,,SKC,0.00,VWS V14.00,2013-04-14 12:27:00,
2013-04-14 08:32:00,47.5,37.8,29.00,SW,229,0.0,0.0,69,0.00,,SKC,0.00,VWS V14.00,2013-04-14 12:32:00,
2013-04-14 08:37:00,48.0,38.3,29.00,SW,229,0.0,0.0,69,0.00,,SKC,0.00,VWS V14.00,2013-04-14 12:37:00,
2013-04-14 08:42:00,48.6,38.5,29.00,SW,229,0.0,0.0,68,0.00,,SKC,0.00,VWS V14.00,2013-04-14 12:42:00,
2013-04-14 08:47:00,49.1,39.0,29.00,NNE,28,3.8,4.9,68,0.00,,SKC,0.00,VWS V14.00,2013-04-14 12:47:00,
2013-04-14 08:52:00,50.0,39.9,29.00,NNE,25,4.3,4.3,68,0.00,,SKC,0.00,VWS V14.00,2013-04-14 12:52:00,
2013-04-14 08:57:00,50.7,40.2,29.00,NE,44,0.0,3.6,67,0.00,,SKC,0.00,VWS V14.00,2013-04-14 12:57:00,
2013-04-14 09:02:00,51.3,40.7,29.00,NE,44,0.0,0.0,67,0.00,,SKC,0.00,VWS V14.00,2013-04-14 13:02:00,
2013-04-14 09:07:00,51.8,40.8,29.00,North,4,0.0,0.0,66,0.00,,SKC,0.00,VWS V14.00,2013-04-14 13:07:00,
2013-04-14 09:12:00,52.3,41.3,29.00,North,5,0.0,0.0,66,0.00,,SKC,0.00,VWS V14.00,2013-04-14 13:12:00,
2013-04-14 09:17:00,52.7,41.7,28.97,North,5,0.0,0.0,66,0.00,,SKC,0.00,VWS V14.00,2013-04-14 13:17:00,
2013-04-14 09:22:00,53.2,42.2,28.97,North,5,0.0,0.0,66,0.00,,SKC,0.00,VWS V14.00,2013-04-14 13:22:00,
2013-04-14 09:28:00,54.0,42.9,28.97,North,5,0.0,0.0,66,0.00,,SKC,0.00,VWS V14.00,2013-04-14 13:28:00,
2013-04-14 09:33:00,54.9,43.3,28.97,North,5,0.0,0.0,65,0.00,,SKC,0.00,VWS V14.00,2013-04-14 13:33:00,
2013-04-14 09:38:00,55.4,43.4,28.97,NNE,17,0.0,0.0,64,0.00,,SKC,0.00,VWS V14.00,2013-04-14 13:38:00,
2013-04-14 09:43:00,56.1,43.7,28.97,NNW,331,0.0,3.1,63,0.00,,SKC,0.00,VWS V14.00,2013-04-14 13:43:00,
2013-04-14 09:48:00,56.7,43.8,28.97,NNE,21,0.0,3.1,62,0.00,,SKC,0.00,VWS V14.00,2013-04-14 13:48:00,
2013-04-14 09:53:00,56.8,43.5,28.97,NE,47,0.0,0.0,61,0.00,,SKC,0.00,VWS V14.00,2013-04-14 13:53:00,
2013-04-14 09:58:00,57.4,43.6,28.97,NNE,27,0.0,3.6,60,0.00,,SKC,0.00,VWS V14.00,2013-04-14 13:58:00,
2013-04-14 10:03:00,57.7,43.5,28.97,NNE,19,0.0,0.0,59,0.00,,SKC,0.00,VWS V14.00,2013-04-14 14:03:00,
2013-04-14 10:08:00,57.9,42.3,28.97,NNE,31,3.8,4.9,56,0.00,,SKC,0.00,VWS V14.00,2013-04-14 14:08:00,
2013-04-14 10:13:00,58.3,42.2,28.97,NNE,26,3.8,4.9,55,0.00,,SKC,0.00,VWS V14.00,2013-04-14 14:13:00,
2013-04-14 10:18:00,58.5,42.4,28.97,ENE,60,0.0,4.9,55,0.00,,SKC,0.00,VWS V14.00,2013-04-14 14:18:00,
2013-04-14 10:23:00,58.6,43.0,28.97,NNE,25,0.0,2.2,56,0.00,,SKC,0.00,VWS V14.00,2013-04-14 14:23:00,
2013-04-14 10:28:00,59.0,42.9,28.97,NE,54,0.0,3.1,55,0.00,,SKC,0.00,VWS V14.00,2013-04-14 14:28:00,
2013-04-14 10:33:00,59.5,42.9,28.97,NE,46,0.0,2.2,54,0.00,,SKC,0.00,VWS V14.00,2013-04-14 14:33:00,
2013-04-14 10:38:00,59.9,43.2,28.97,North,0,0.0,2.2,54,0.00,,SKC,0.00,VWS V14.00,2013-04-14 14:38:00,
2013-04-14 10:43:00,60.4,43.2,28.97,NNE,26,3.2,3.6,53,0.00,,SKC,0.00,VWS V14.00,2013-04-14 14:43:00,
2013-04-14 10:48:00,60.8,43.1,28.94,NE,40,0.0,4.0,52,0.00,,SKC,0.00,VWS V14.00,2013-04-14 14:48:00,
2013-04-14 10:53:00,61.2,42.9,28.94,NNE,20,0.0,3.6,51,0.00,,SKC,0.00,VWS V14.00,2013-04-14 14:53:00,
2013-04-14 10:58:00,61.7,43.4,28.94,NNE,30,0.0,3.6,51,0.00,,SKC,0.00,VWS V14.00,2013-04-14 14:58:00,
2013-04-14 11:03:00,62.1,43.7,28.97,North,353,0.0,0.0,51,0.00,,SKC,0.00,VWS V14.00,2013-04-14 15:03:00,
2013-04-14 11:08:00,62.6,43.7,28.97,NE,38,0.0,0.0,50,0.00,,SKC,0.00,VWS V14.00,2013-04-14 15:08:00,
2013-04-14 11:13:00,63.1,44.2,28.97,NE,38,0.0,0.0,50,0.00,,SKC,0.00,VWS V14.00,2013-04-14 15:13:00,
2013-04-14 11:18:00,63.5,44.5,28.94,East,88,0.0,0.0,50,0.00,,SKC,0.00,VWS V14.00,2013-04-14 15:18:00,
2013-04-14 11:23:00,63.9,44.3,28.94,NNW,346,0.0,3.6,49,0.00,,SKC,0.00,VWS V14.00,2013-04-14 15:23:00,
2013-04-14 11:28:00,64.0,44.0,28.94,NNE,30,0.0,3.6,48,0.00,,SKC,0.00,VWS V14.00,2013-04-14 15:28:00,
2013-04-14 11:33:00,64.4,43.8,28.94,ENE,57,0.0,4.0,47,0.00,,SKC,0.00,VWS V14.00,2013-04-14 15:33:00,
2013-04-14 11:38:00,64.4,43.2,28.94,NNE,20,0.0,4.9,46,0.00,,SKC,0.00,VWS V14.00,2013-04-14 15:38:00,
2013-04-14 11:43:00,64.8,43.0,28.94,NNE,15,0.0,3.6,45,0.00,,SKC,0.00,VWS V14.00,2013-04-14 15:43:00,
2013-04-14 11:48:00,64.8,43.0,28.94,North,11,3.8,3.8,45,0.00,,SKC,0.00,VWS V14.00,2013-04-14 15:48:00,
2013-04-14 11:53:00,65.1,42.7,28.94,North,3,0.0,0.0,44,0.00,,SKC,0.00,VWS V14.00,2013-04-14 15:53:00,
2013-04-14 11:58:00,65.5,43.0,28.94,NNE,15,0.0,0.0,44,0.00,,SKC,0.00,VWS V14.00,2013-04-14 15:58:00,
2013-04-14 12:03:00,65.7,43.2,28.94,ENE,57,0.0,2.2,44,0.00,,SKC,0.00,VWS V14.00,2013-04-14 16:03:00,
2013-04-14 12:08:00,66.2,43.1,28.94,North,11,0.0,2.2,43,0.00,,SKC,0.00,VWS V14.00,2013-04-14 16:08:00,
2013-04-14 12:13:00,66.4,43.2,28.94,NNE,30,0.0,5.4,43,0.00,,SKC,0.00,VWS V14.00,2013-04-14 16:13:00,
2013-04-14 12:18:00,66.4,42.6,28.94,NNE,31,3.8,5.4,42,0.00,,SKC,0.00,VWS V14.00,2013-04-14 16:18:00,
2013-04-14 12:23:00,66.6,42.2,28.94,NNE,21,0.0,5.8,41,0.00,,SKC,0.00,VWS V14.00,2013-04-14 16:23:00,
2013-04-14 12:28:00,66.7,42.3,28.94,NNE,29,0.0,5.8,41,0.00,,SKC,0.00,VWS V14.00,2013-04-14 16:28:00,
2013-04-14 12:33:00,66.7,42.3,28.94,NNE,17,0.0,3.1,41,0.00,,SKC,0.00,VWS V14.00,2013-04-14 16:33:00,
2013-04-14 12:38:00,66.9,41.8,28.94,NNE,16,0.0,4.0,40,0.00,,SKC,0.00,VWS V14.00,2013-04-14 16:38:00,
2013-04-14 12:43:00,67.3,42.2,28.94,NNE,29,0.0,0.0,40,0.00,,SKC,0.00,VWS V14.00,2013-04-14 16:43:00,
2013-04-14 12:48:00,67.5,41.7,28.94,NNE,29,0.0,0.0,39,0.00,,SKC,0.00,VWS V14.00,2013-04-14 16:48:00,
2013-04-14 12:53:00,67.8,42.6,28.94,NNE,29,0.0,0.0,40,0.00,,SKC,0.00,VWS V14.00,2013-04-14 16:53:00,
2013-04-14 12:59:00,68.2,41.6,28.94,SSE,147,0.0,0.0,38,0.00,,SKC,0.00,VWS V14.00,2013-04-14 16:59:00,
2013-04-14 13:04:00,68.5,42.0,28.94,NW,314,0.0,0.0,38,0.00,,SKC,0.00,VWS V14.00,2013-04-14 17:04:00,
2013-04-14 13:09:00,68.9,42.3,28.94,NE,38,0.0,0.0,38,0.00,,SKC,0.00,VWS V14.00,2013-04-14 17:09:00,
2013-04-14 13:14:00,69.1,42.4,28.94,NNE,27,0.0,2.7,38,0.00,,SKC,0.00,VWS V14.00,2013-04-14 17:14:00,
2013-04-14 13:19:00,69.1,41.7,28.94,NNE,31,2.7,4.0,37,0.00,,SKC,0.00,VWS V14.00,2013-04-14 17:19:00,
2013-04-14 13:24:00,69.1,41.0,28.94,NNE,20,2.7,2.7,36,0.00,,SKC,0.00,VWS V14.00,2013-04-14 17:24:00,
2013-04-14 13:29:00,69.3,41.2,28.94,NNE,33,0.0,2.2,36,0.00,,SKC,0.00,VWS V14.00,2013-04-14 17:29:00,
2013-04-14 13:34:00,69.4,41.3,28.91,NNE,18,0.0,0.0,36,0.00,,SKC,0.00,VWS V14.00,2013-04-14 17:34:00,
2013-04-14 13:39:00,69.4,41.3,28.91,NE,36,3.2,3.2,36,0.00,,SKC,0.00,VWS V14.00,2013-04-14 17:39:00,
2013-04-14 13:44:00,69.6,40.8,28.91,ENE,76,0.0,0.0,35,0.00,,SKC,0.00,VWS V14.00,2013-04-14 17:44:00,
2013-04-14 13:49:00,69.6,40.8,28.91,NE,36,0.0,2.7,35,0.00,,SKC,0.00,VWS V14.00,2013-04-14 17:49:00,
2013-04-14 13:54:00,69.8,40.2,28.91,NE,36,0.0,0.0,34,0.00,,SKC,0.00,VWS V14.00,2013-04-14 17:54:00,
2013-04-14 13:59:00,70.0,41.1,28.91,NE,36,0.0,0.0,35,0.00,,SKC,0.00,VWS V14.00,2013-04-14 17:59:00,
2013-04-14 14:04:00,70.3,41.4,28.91,NE,36,0.0,0.0,35,0.00,,SKC,0.00,VWS V14.00,2013-04-14 18:04:00,
2013-04-14 14:09:00,70.3,41.4,28.91,NE,36,0.0,0.0,35,0.00,,SKC,0.00,VWS V14.00,2013-04-14 18:09:00,
2013-04-14 14:14:00,70.3,41.4,28.91,NE,35,0.0,0.0,35,0.00,,SKC,0.00,VWS V14.00,2013-04-14 18:14:00,
2013-04-14 14:19:00,70.3,41.4,28.91,NE,37,0.0,0.0,35,0.00,,SKC,0.00,VWS V14.00,2013-04-14 18:19:00,
2013-04-14 14:24:00,70.3,41.4,28.91,NE,37,0.0,0.0,35,0.00,,SKC,0.00,VWS V14.00,2013-04-14 18:24:00,
2013-04-14 14:29:00,70.5,41.6,28.91,NE,37,0.0,0.0,35,0.00,,SKC,0.00,VWS V14.00,2013-04-14 18:29:00,
2013-04-14 14:34:00,70.5,41.6,28.91,NE,37,0.0,0.0,35,0.00,,SKC,0.00,VWS V14.00,2013-04-14 18:34:00,
2013-04-14 14:39:00,70.5,41.6,28.91,NE,37,0.0,0.0,35,0.00,,SKC,0.00,VWS V14.00,2013-04-14 18:39:00,
2013-04-14 14:44:00,70.7,41.7,28.91,NE,37,0.0,0.0,35,0.00,,SKC,0.00,VWS V14.00,2013-04-14 18:44:00,
2013-04-14 14:49:00,70.9,42.6,28.91,NE,37,0.0,0.0,36,0.00,,SKC,0.00,VWS V14.00,2013-04-14 18:49:00,
2013-04-14 14:54:00,70.9,42.6,28.91,NE,37,0.0,0.0,36,0.00,,SKC,0.00,VWS V14.00,2013-04-14 18:54:00,
2013-04-14 14:59:00,70.7,42.5,28.91,NE,37,0.0,0.0,36,0.00,,SKC,0.00,VWS V14.00,2013-04-14 18:59:00,
2013-04-14 15:04:00,70.7,42.5,28.91,NE,37,0.0,0.0,36,0.00,,SKC,0.00,VWS V14.00,2013-04-14 19:04:00,
2013-04-14 15:09:00,70.5,42.3,28.91,NE,37,0.0,0.0,36,0.00,,SKC,0.00,VWS V14.00,2013-04-14 19:09:00,
2013-04-14 15:14:00,70.3,42.9,28.91,SSW,209,0.0,0.0,37,0.00,,SKC,0.00,VWS V14.00,2013-04-14 19:14:00,
2013-04-14 15:19:00,70.2,42.7,28.91,SSW,195,0.0,0.0,37,0.00,,SKC,0.00,VWS V14.00,2013-04-14 19:19:00,
2013-04-14 15:24:00,70.0,42.5,28.91,SSW,196,0.0,0.0,37,0.00,,SKC,0.00,VWS V14.00,2013-04-14 19:24:00,
2013-04-14 15:29:00,69.8,42.4,28.91,SW,224,0.0,0.0,37,0.00,,SKC,0.00,VWS V14.00,2013-04-14 19:29:00,
2013-04-14 15:34:00,69.6,42.9,28.91,SW,224,0.0,0.0,38,0.00,,SKC,0.00,VWS V14.00,2013-04-14 19:34:00,
2013-04-14 15:39:00,69.4,42.8,28.91,SW,224,0.0,0.0,38,0.00,,SKC,0.00,VWS V14.00,2013-04-14 19:39:00,
2013-04-14 15:44:00,69.3,41.9,28.91,SW,224,0.0,0.0,37,0.00,,SKC,0.00,VWS V14.00,2013-04-14 19:44:00,
2013-04-14 15:49:00,69.1,41.7,28.91,SW,224,0.0,0.0,37,0.00,,SKC,0.00,VWS V14.00,2013-04-14 19:49:00,
2013-04-14 15:54:00,68.9,42.3,28.91,SW,215,0.0,0.0,38,0.00,,SKC,0.00,VWS V14.00,2013-04-14 19:54:00,
2013-04-14 15:59:00,68.7,42.1,28.91,SW,215,0.0,0.0,38,0.00,,SKC,0.00,VWS V14.00,2013-04-14 19:59:00,
2013-04-14 16:04:00,68.5,42.0,28.91,SW,215,0.0,0.0,38,0.00,,SKC,0.00,VWS V14.00,2013-04-14 20:04:00,
2013-04-14 16:09:00,68.5,42.0,28.91,SW,215,0.0,0.0,38,0.00,,SKC,0.00,VWS V14.00,2013-04-14 20:09:00,
2013-04-14 16:14:00,68.4,41.8,28.91,SW,215,0.0,0.0,38,0.00,,SKC,0.00,VWS V14.00,2013-04-14 20:14:00,
2013-04-14 16:19:00,68.2,42.3,28.91,SW,216,0.0,0.0,39,0.00,,SKC,0.00,VWS V14.00,2013-04-14 20:19:00,
2013-04-14 16:24:00,68.0,42.1,28.91,SW,216,0.0,0.0,39,0.00,,SKC,0.00,VWS V14.00,2013-04-14 20:24:00,
2013-04-14 16:29:00,67.8,42.6,28.91,SW,224,0.0,0.0,40,0.00,,SKC,0.00,VWS V14.00,2013-04-14 20:29:00,
2013-04-14 16:34:00,67.6,42.5,28.91,SW,224,0.0,0.0,40,0.00,,SKC,0.00,VWS V14.00,2013-04-14 20:34:00,
2013-04-14 16:39:00,67.5,43.0,28.91,SW,224,0.0,0.0,41,0.00,,SKC,0.00,VWS V14.00,2013-04-14 20:39:00,
2013-04-14 16:44:00,67.3,42.2,28.91,SW,218,3.2,5.4,40,0.00,,SKC,0.00,VWS V14.00,2013-04-14 20:44:00,
2013-04-14 16:49:00,67.1,41.3,28.91,SSW,205,4.3,5.8,39,0.00,,SKC,0.00,VWS V14.00,2013-04-14 20:49:00,
2013-04-14 16:54:00,66.9,40.5,28.91,South,183,0.0,4.9,38,0.00,,SKC,0.00,VWS V14.00,2013-04-14 20:54:00,
2013-04-14 17:00:00,66.7,40.3,28.91,SW,236,4.8,4.9,38,0.00,,SKC,0.00,VWS V14.00,2013-04-14 21:00:00,
2013-04-14 17:05:00,66.6,39.5,28.91,South,178,3.8,4.0,37,0.00,,SKC,0.00,VWS V14.00,2013-04-14 21:05:00,
2013-04-14 17:10:00,66.6,39.5,28.91,WSW,253,4.8,5.8,37,0.00,,SKC,0.00,VWS V14.00,2013-04-14 21:10:00,
2013-04-14 17:15:00,66.4,39.3,28.91,SW,224,0.0,8.3,37,0.00,,SKC,0.00,VWS V14.00,2013-04-14 21:15:00,
2013-04-14 17:20:00,66.2,38.5,28.88,South,172,7.5,8.7,36,0.00,,SKC,0.00,VWS V14.00,2013-04-14 21:20:00,
2013-04-14 17:25:00,66.0,39.0,28.88,SW,219,7.5,9.6,37,0.00,,SKC,0.00,VWS V14.00,2013-04-14 21:25:00,
2013-04-14 17:30:00,65.8,38.9,28.88,SE,142,3.8,9.6,37,0.00,,SKC,0.00,VWS V14.00,2013-04-14 21:30:00,
2013-04-14 17:35:00,65.7,38.0,28.88,SW,233,0.0,5.4,36,0.00,,SKC,0.00,VWS V14.00,2013-04-14 21:35:00,
2013-04-14 17:40:00,65.5,37.8,28.88,WNW,292,0.0,0.0,36,0.00,,SKC,0.00,VWS V14.00,2013-04-14 21:40:00,
2013-04-14 17:45:00,65.5,37.8,28.88,SSW,195,0.0,2.7,36,0.00,,SKC,0.00,VWS V14.00,2013-04-14 21:45:00,
2013-04-14 17:50:00,65.3,37.7,28.88,NNW,328,0.0,6.3,36,0.00,,SKC,0.00,VWS V14.00,2013-04-14 21:50:00,
2013-04-14 17:55:00,65.3,37.7,28.88,NNW,330,0.0,7.2,36,0.00,,SKC,0.00,VWS V14.00,2013-04-14 21:55:00,
2013-04-14 18:00:00,65.1,37.5,28.88,SSE,161,0.0,7.2,36,0.00,,SKC,0.00,VWS V14.00,2013-04-14 22:00:00,
2013-04-14 18:05:00,64.8,37.2,28.88,South,185,4.3,6.3,36,0.00,,SKC,0.00,VWS V14.00,2013-04-14 22:05:00,
2013-04-14 18:10:00,64.8,37.2,28.88,SSW,202,0.0,0.0,36,0.00,,SKC,0.00,VWS V14.00,2013-04-14 22:10:00,
2013-04-14 18:15:00,64.6,37.0,28.88,WSW,250,0.0,2.7,36,0.00,,SKC,0.00,VWS V14.00,2013-04-14 22:15:00,
2013-04-14 18:20:00,64.4,36.9,28.88,NNE,31,0.0,0.0,36,0.00,,SKC,0.00,VWS V14.00,2013-04-14 22:20:00,
2013-04-14 18:25:00,64.4,36.9,28.88,North,0,0.0,0.0,36,0.00,,SKC,0.00,VWS V14.00,2013-04-14 22:25:00,
2013-04-14 18:30:00,64.0,37.3,28.88,North,1,0.0,0.0,37,0.00,,SKC,0.00,VWS V14.00,2013-04-14 22:30:00,
2013-04-14 18:35:00,63.7,37.6,28.88,NNE,27,0.0,0.0,38,0.00,,SKC,0.00,VWS V14.00,2013-04-14 22:35:00,
2013-04-14 18:40:00,63.3,37.3,28.88,NE,39,0.0,0.0,38,0.00,,SKC,0.00,VWS V14.00,2013-04-14 22:40:00,
2013-04-14 18:45:00,63.1,38.5,28.88,NNE,12,0.0,0.0,40,0.00,,SKC,0.00,VWS V14.00,2013-04-14 22:45:00,
2013-04-14 18:50:00,63.0,38.3,28.88,NNE,33,0.0,0.0,40,0.00,,SKC,0.00,VWS V14.00,2013-04-14 22:50:00,
2013-04-14 18:55:00,62.8,38.1,28.88,NE,44,0.0,2.7,40,0.00,,SKC,0.00,VWS V14.00,2013-04-14 22:55:00,
2013-04-14 19:00:00,62.4,38.4,28.88,NNW,327,0.0,0.0,41,0.00,,SKC,0.00,VWS V14.00,2013-04-14 23:00:00,
2013-04-14 19:05:00,62.4,39.0,28.88,NNW,327,0.0,0.0,42,0.00,,SKC,0.00,VWS V14.00,2013-04-14 23:05:00,
2013-04-14 19:10:00,62.4,39.7,28.88,NNW,327,0.0,0.0,43,0.00,,SKC,0.00,VWS V14.00,2013-04-14 23:10:00,
2013-04-14 19:15:00,62.2,40.1,28.88,NW,326,0.0,0.0,44,0.00,,SKC,0.00,VWS V14.00,2013-04-14 23:15:00,
2013-04-14 19:20:00,62.2,40.1,28.88,SSW,198,0.0,0.0,44,0.00,,SKC,0.00,VWS V14.00,2013-04-14 23:20:00,
2013-04-14 19:25:00,62.1,39.9,28.88,SSW,198,0.0,0.0,44,0.00,,SKC,0.00,VWS V14.00,2013-04-14 23:25:00,
2013-04-14 19:30:00,61.9,40.3,28.88,SSW,198,0.0,0.0,45,0.00,,SKC,0.00,VWS V14.00,2013-04-14 23:30:00,
2013-04-14 19:35:00,61.7,40.2,28.88,SSW,197,0.0,0.0,45,0.00,,SKC,0.00,VWS V14.00,2013-04-14 23:35:00,
2013-04-14 19:40:00,61.7,40.2,28.88,SSW,198,0.0,0.0,45,0.00,,SKC,0.00,VWS V14.00,2013-04-14 23:40:00,
2013-04-14 19:45:00,61.5,40.6,28.88,SSW,198,0.0,0.0,46,0.00,,SKC,0.00,VWS V14.00,2013-04-14 23:45:00,
2013-04-14 19:50:00,61.3,40.4,28.88,SSW,198,0.0,0.0,46,0.00,,SKC,0.00,VWS V14.00,2013-04-14 23:50:00,
2013-04-14 19:55:00,61.2,40.8,28.88,SSW,198,0.0,0.0,47,0.00,,SKC,0.00,VWS V14.00,2013-04-14 23:55:00,
2013-04-14 20:00:00,61.0,40.6,28.88,SSW,198,0.0,0.0,47,0.00,,SKC,0.00,VWS V14.00,2013-04-15 00:00:00,
2013-04-14 20:05:00,60.6,40.8,28.91,SSW,198,0.0,0.0,48,0.00,,SKC,0.00,VWS V14.00,2013-04-15 00:05:00,
2013-04-14 20:10:00,60.6,41.4,28.91,SSW,198,0.0,0.0,49,0.00,,SKC,0.00,VWS V14.00,2013-04-15 00:10:00,
2013-04-14 20:15:00,60.4,41.7,28.91,SSW,198,0.0,0.0,50,0.00,,SKC,0.00,VWS V14.00,2013-04-15 00:15:00,
2013-04-14 20:20:00,60.3,41.6,28.88,SSW,197,0.0,0.0,50,0.00,,SKC,0.00,VWS V14.00,2013-04-15 00:20:00,
2013-04-14 20:25:00,60.3,42.1,28.88,SSW,198,0.0,0.0,51,0.00,,SKC,0.00,VWS V14.00,2013-04-15 00:25:00,
2013-04-14 20:30:00,60.1,41.9,28.88,SSW,198,0.0,0.0,51,0.00,,SKC,0.00,VWS V14.00,2013-04-15 00:30:00,
2013-04-14 20:36:00,59.7,42.1,28.91,SSW,198,0.0,0.0,52,0.00,,SKC,0.00,VWS V14.00,2013-04-15 00:36:00,
2013-04-14 20:41:00,59.5,41.9,28.91,SSW,198,0.0,0.0,52,0.00,,SKC,0.00,VWS V14.00,2013-04-15 00:41:00,
2013-04-14 20:50:00,59.2,42.1,28.91,SSW,197,0.0,0.0,53,0.00,,SKC,0.00,VWS V14.00,2013-04-15 00:50:00,
2013-04-14 20:56:00,59.0,41.9,28.91,SSW,198,0.0,0.0,53,0.00,,SKC,0.00,VWS V14.00,2013-04-15 00:56:00,
2013-04-14 21:01:00,58.6,42.5,28.91,SSW,198,0.0,0.0,55,0.00,,SKC,0.00,VWS V14.00,2013-04-15 01:01:00,
2013-04-14 21:06:00,58.6,42.5,28.91,SSW,197,0.0,0.0,55,0.00,,SKC,0.00,VWS V14.00,2013-04-15 01:06:00,
2013-04-14 21:11:00,58.8,42.7,28.91,SSW,198,0.0,0.0,55,0.00,,SKC,0.00,VWS V14.00,2013-04-15 01:11:00,
2013-04-14 21:16:00,58.8,42.7,28.91,SSW,198,0.0,0.0,55,0.00,,SKC,0.00,VWS V14.00,2013-04-15 01:16:00,
2013-04-14 21:21:00,58.6,43.0,28.91,SSW,198,0.0,0.0,56,0.00,,SKC,0.00,VWS V14.00,2013-04-15 01:21:00,
2013-04-14 21:26:00,58.5,43.3,28.91,SSW,198,0.0,0.0,57,0.00,,SKC,0.00,VWS V14.00,2013-04-15 01:26:00,
2013-04-14 21:32:00,58.5,43.3,28.91,SSW,198,0.0,0.0,57,0.00,,SKC,0.00,VWS V14.00,2013-04-15 01:32:00,
2013-04-14 21:37:00,58.5,43.3,28.91,SSW,197,0.0,0.0,57,0.00,,SKC,0.00,VWS V14.00,2013-04-15 01:37:00,
2013-04-14 21:42:00,58.3,44.0,28.91,SSW,198,0.0,0.0,59,0.00,,SKC,0.00,VWS V14.00,2013-04-15 01:42:00,
2013-04-14 21:47:00,58.1,43.9,28.91,SSW,198,0.0,0.0,59,0.00,,SKC,0.00,VWS V14.00,2013-04-15 01:47:00,
2013-04-14 21:52:00,58.3,44.0,28.91,SSW,198,0.0,0.0,59,0.00,,SKC,0.00,VWS V14.00,2013-04-15 01:52:00,
2013-04-14 22:00:00,58.1,44.3,28.91,SSW,198,0.0,0.0,60,0.00,,SKC,0.00,VWS V14.00,2013-04-15 02:00:00,
2013-04-14 22:07:00,57.9,44.1,28.88,NNE,25,0.0,0.0,60,0.00,,SKC,0.00,VWS V14.00,2013-04-15 02:07:00,
2013-04-14 22:12:00,57.9,44.1,28.88,NNE,25,0.0,0.0,60,0.00,,SKC,0.00,VWS V14.00,2013-04-15 02:12:00,
2013-04-14 22:17:00,57.9,44.1,28.88,NNE,25,0.0,0.0,60,0.00,,SKC,0.00,VWS V14.00,2013-04-15 02:17:00,
2013-04-14 22:22:00,57.9,44.6,28.88,NNE,25,0.0,0.0,61,0.00,,SKC,0.00,VWS V14.00,2013-04-15 02:22:00,
2013-04-14 22:27:00,57.7,44.4,28.88,NNE,25,0.0,0.0,61,0.00,,SKC,0.00,VWS V14.00,2013-04-15 02:27:00,
2013-04-14 22:32:00,57.6,44.7,28.88,South,171,0.0,0.0,62,0.00,,SKC,0.00,VWS V14.00,2013-04-15 02:32:00,
2013-04-14 22:37:00,57.7,44.8,28.88,South,183,0.0,0.0,62,0.00,,SKC,0.00,VWS V14.00,2013-04-15 02:37:00,
2013-04-14 22:42:00,57.7,44.8,28.88,South,183,0.0,0.0,62,0.00,,SKC,0.00,VWS V14.00,2013-04-15 02:42:00,
2013-04-14 22:47:00,57.7,44.8,28.88,South,183,0.0,0.0,62,0.00,,SKC,0.00,VWS V14.00,2013-04-15 02:47:00,
2013-04-14 22:52:00,57.7,44.8,28.88,South,183,0.0,0.0,62,0.00,,SKC,0.00,VWS V14.00,2013-04-15 02:52:00,
2013-04-14 22:57:00,57.7,44.8,28.88,South,183,0.0,0.0,62,0.00,,SKC,0.00,VWS V14.00,2013-04-15 02:57:00,
2013-04-14 23:02:00,57.7,44.8,28.88,South,183,0.0,0.0,62,0.00,,SKC,0.00,VWS V14.00,2013-04-15 03:02:00,
2013-04-14 23:07:00,57.6,45.1,28.88,South,183,0.0,0.0,63,0.00,,SKC,0.00,VWS V14.00,2013-04-15 03:07:00,
2013-04-14 23:12:00,57.6,45.1,28.88,South,183,0.0,0.0,63,0.00,,SKC,0.00,VWS V14.00,2013-04-15 03:12:00,
2013-04-14 23:17:00,57.6,45.1,28.88,South,183,0.0,0.0,63,0.00,,SKC,0.00,VWS V14.00,2013-04-15 03:17:00,
2013-04-14 23:22:00,57.6,45.1,28.88,South,183,0.0,0.0,63,0.00,,SKC,0.00,VWS V14.00,2013-04-15 03:22:00,
2013-04-14 23:27:00,57.6,45.1,28.88,South,183,0.0,0.0,63,0.00,,SKC,0.00,VWS V14.00,2013-04-15 03:27:00,
2013-04-14 23:32:00,57.6,45.1,28.88,South,183,0.0,0.0,63,0.00,,SKC,0.00,VWS V14.00,2013-04-15 03:32:00,
2013-04-14 23:37:00,57.6,45.1,28.88,South,183,0.0,0.0,63,0.00,,SKC,0.00,VWS V14.00,2013-04-15 03:37:00,
2013-04-14 23:42:00,57.6,45.1,28.88,South,183,0.0,0.0,63,0.00,,SKC,0.00,VWS V14.00,2013-04-15 03:42:00,
2013-04-14 23:47:00,57.6,45.5,28.88,South,183,0.0,0.0,64,0.00,,SKC,0.00,VWS V14.00,2013-04-15 03:47:00,
2013-04-14 23:52:00,57.6,45.5,28.88,South,183,0.0,0.0,64,0.00,,SKC,0.00,VWS V14.00,2013-04-15 03:52:00,
2013-04-14 23:57:00,57.6,45.5,28.88,South,183,0.0,0.0,64,0.00,,SKC,0.00,VWS V14.00,2013-04-15 03:57:00,